www.pogodaiklimat.ru

Погода и климат >> Архив погоды >> Венгрия >> Paks


ПОГОДА в Paks

  • Прогноз погоды в Paks
  • Монитор погоды в Paks
  • Климат города

АРХИВ ПОГОДЫ в Paks

Время (UTC), дата Ветер
(напр.,м/с)
 
Видим.   Явления Облачность Т
(С)
Тd
(С)
f
(%)
Тe
(С)
Тes
(С)
Комфортность P
(гПа)
Po
(гПа)
Тmin
(С)
Tmax
(С)
R
(мм)
R24
(мм)
S
(см)
23 6.12 Ю 1 6000 м 10/0
[Ac As]
+0.2 -0.9 92 -2 -2 1026.5 1014.0
22 6.12 Ю 1 6000 м 9/0
[Ac As]
-0.5 -0.9 97 -3 -3 1026.7 1014.2
00 7.12 Ю 1 6000 м 10/0
[Ac As]
+0.7 -0.9 89 -1 -1 1025.7 1013.3
01 7.12 Ю 1 6000 м 10/0
[Ac As]
+1.0 -0.8 88 -1 -1 1025.4 1013.0
02 7.12 Ю 1 6000 м 10/0
[Ac As]
+1.0 -0.6 89 -1 -1 1025.2 1012.8
03 7.12 ЮЗ 1 6000 м 10/0
[Ac As]
+1.1 -0.4 90 -1 -1 1024.9 1012.5
05 7.12 штиль 0 6000 м 10/4 800 м
[Sc Ac As]
+1.6 -0.2 88 0 0 1024.2 1011.8
04 7.12 штиль 0 6000 м 10/4 800 м
[Sc Ac As]
+1.4 +0.1 91 0 0 1024.4 1012.0
06 7.12 Ю 2 8000 м 10/8 800 м
[Sc Ac As]
+1.7 -0.2 87 -2 -2 1023.9 1011.5 -2.4
07 7.12 Ю 2 8000 м 9/9 800 м
[Sc]
+1.7 -0.5 85 -2 -2 1023.3 1010.9
08 7.12 Ю 2 6000 м в посл. час дождь 9/9 800 м
[Sc]
+1.7 -0.2 87 -2 -2 1023.0 1010.6
09 7.12 ЮЗ 3 6000 м {дождь} 9/9 800 м
[Sc]
+2.3 -0.1 84 -2 -2 1022.7 1010.4
11 7.12 Ю 3 8000 м 9/4 800 м
[Sc Ac As]
+5.1 +1.2 76 +2 +2 1020.8 1008.6
10 7.12 Ю 3 8000 м 9/9 800 м
[Sc]
+3.4 +0.6 82 -0 -0 1021.9 1009.6
12 7.12 Ю 3 12 км {дождь} 9/9 800 м
[Sc]
+5.7 +0.7 70 +3 +3 1019.9 1007.7
13 7.12 Ю 3 15 км 9/0
[Ac As]
+6.5 +0.8 67 +4 +4 1018.9 1006.8
14 7.12 Ю 3 15 км 9/0
[Ac As Cs]
+6.2 +0.7 68 +3 +3 1018.3 1006.2
15 7.12 Ю 2 12 км 9/0
[Ac trans Cs]
+5.7 +1.2 73 +3 +3 1017.6 1005.5
17 7.12 Ю 1 12 км 9/0
[Cs]
+3.3 +0.4 81 +2 +2 1016.6 1004.4
16 7.12 Ю 2 12 км 9/0
[Cs]
+4.5 +1.2 79 +2 +2 1017.0 1004.8
18 7.12 ЮВ 1 8000 м 6/0
[Ci sp]
+2.9 +0.5 84 +1 +1 1015.6 1003.4 +6.6
21 7.12 Ю 2 8000 м 3/0
[Ci sp]
+2.4 +0.5 87 -1 -1 1012.7 1000.5
00 8.12 Ю 2 8000 м 10/0
[Ac As]
+3.0 +0.6 84 0 0 1010.9 998.7
01 8.12 Ю 1 8000 м 10/0
[Ac As]
+3.2 +0.8 84 +2 +2 1010.5 998.3
02 8.12 штиль 0 6000 м 10/0
[Ac As]
+3.8 +1.0 82 +3 +3 1009.7 997.6
03 8.12 штиль 0 6000 м 10/8 800 м
[Sc Ac As]
+3.4 +1.4 87 +2 +2 1009.4 997.3
05 8.12 ЮВ 1 6000 м 10/8 800 м
[Sc Ac As]
+4.1 +2.0 86 +3 +3 1009.2 997.1
04 8.12 Ю 1 6000 м в посл. час дождь 10/8 800 м
[Sc Ac As]
+3.4 +1.9 90 +2 +2 1009.4 997.3
06 8.12 штиль 0 6000 м слабый дождь 10/8 600 м
[Sc Ac As]
+4.2 +3.2 93 +3 +3 1009.8 997.7 0.8
07 8.12 СЗ 3 2000 м слабый дождь 10/4 400 м
[Frnb As op]
+4.1 +3.5 96 0 0 1011.0 998.9
08 8.12 С 1 2000 м слабый дождь 10/4 400 м
[Frnb As op]
+3.9 +3.6 98 +2 +2 1011.5 999.4
09 8.12 С 1 2000 м слабый дождь 10/4 400 м
[Frnb As op]
+4.4 +4.1 98 +3 +3 1011.4 999.3
11 8.12 С 3
{7}
6000 м 9/0
[Ac As]
+7.3 +5.1 86 +4 +5 1011.9 999.9
10 8.12 СЗ 1 5000 м в посл. час дождь 9/0
[Ac As]
+6.4 +6.0 97 +5 +6 1011.7 999.7
12 8.12 СЗ 3 6000 м {дождь} 9/0
[Ac As]
+7.9 +4.7 80 +5 +6 1012.3 1000.3 4
13 8.12 СЗ 2
{7}
12 км 9/0
[Ac As]
+9.0 +4.0 71 +7 +8 1012.3 1000.4
14 8.12 С 3
{7}
12 км 9/0
[Ac As]
+8.7 +3.3 69 +6 +6 1012.9 1001.0
15 8.12 СЗ 1 12 км 9/0
[Ac As]
+8.1 +2.8 69 +8 +8 1013.4 1001.4
17 8.12 СЗ 1 12 км 9/0
[Ac As]
+5.3 +2.5 82 +4 +4 1014.0 1001.9
16 8.12 СЗ 1 12 км 9/0
[Ac As]
+6.6 +2.1 73 +6 +6 1013.8 1001.8
18 8.12 З 1 10 км 8/0
[Ac As]
+3.6 +1.8 88 +2 +2 1014.4 1002.2 +9.0 4
19 8.12 штиль 0 10 км 8/0
[Ac As]
+2.0 +1.1 94 +1 +1 1014.5 1002.2
20 8.12 ЮЗ 1 10 км 8/0
[Ac As]
+2.1 +0.9 92 0 0 1014.3 1002.1
21 8.12 ЮЗ 1 10 км 3/0
[Ac lent]
+0.9 +0.5 97 -1 -1 1014.1 1001.8
23 8.12 ЮЗ 2 6000 м ясно +2.7 +2.3 97 -1 -1 1013.9 1001.7
22 8.12 ЮЗ 1 6000 м ясно -0.3 -0.6 98 -3 -3 1014.3 1001.9
00 9.12 штиль 0 6000 м ясно +1.7 +1.1 96 0 0 1013.5 1001.2
01 9.12 ЮЗ 2 6000 м ясно +1.7 +1.4 98 -2 -2 1012.6 1000.4
02 9.12 Ю 2 6000 м ясно +2.6 +1.6 93 -1 -1 1011.9 999.7
03 9.12 ЮЗ 2 6000 м ясно +2.6 +1.6 93 -1 -1 1011.3 999.1
05 9.12 ЮЗ 1 6000 м ясно -0.6 -1.2 96 -3 -3 1010.1 997.8
04 9.12 Ю 1 6000 м ясно +1.2 +0.3 94 -1 -1 1010.4 998.2
06 9.12 Ю 2 6000 м 6/5 1000 м
[Sc Ci sp]
+1.1 +0.7 97 -3 -3 1009.3 997.1 -0.8
07 9.12 Ю 1 6000 м 8/5 800 м
[Sc Ac trans Ci sp]
+0.6 +0.3 98 -2 -2 1008.3 996.1
08 9.12 Ю 3 12 км 8/4 1000 м
[Sc Ac trans Ci sp]
+1.4 +1.1 98 -3 -3 1007.4 995.2
09 9.12 Ю 3 15 км 9/0
[Ac As]
+2.8 +1.5 91 -1 -1 1006.4 994.3
11 9.12 Ю 2 20 км 9/0
[Ac As]
+6.0 +2.6 79 +4 +5 1006.3 994.3
10 9.12 Ю 4
{7}
18 км 9/0
[Ac As]
+4.4 +2.1 85 0 +1 1006.0 994.0
12 9.12 Ю 2 25 км 9/0
[Ac As]
+7.0 +3.2 77 +5 +6 1005.3 993.4
13 9.12 Ю 2 25 км 9/0
[Ac As Cs]
+7.3 +3.4 76 +5 +6 1004.7 992.8
14 9.12 Ю 2 25 км 9/0
[Ac trans Cs]
+8.4 +3.7 72 +7 +7 1004.6 992.7
15 9.12 ЮВ 1 20 км 6/0
[Ac trans Ci sp]
+5.2 +2.9 85 +4 +4 1005.1 993.1
17 9.12 штиль 0 8000 м 9/0
[Ac As]
+3.1 +2.2 94 +2 +2 1004.5 992.4
16 9.12 штиль 0 15 км 9/0
[Ac As]
+4.0 +2.5 90 +3 +3 1005.2 993.1
18 9.12 штиль 0 6000 м 5/0
[Ac trans Ci sp]
+1.6 +1.0 96 0 0 1005.6 993.4 +8.5
19 9.12 Ю 1 6000 м 3/0
[Ci sp]
+0.8 +0.5 98 -1 -1 1005.8 993.6
20 9.12 Ю 1 6000 м 3/0
[Ci sp]
+0.9 +0.5 97 -1 -1 1006.3 994.1
21 9.12 штиль 0 6000 м 5/0
[Ac trans Ci sp]
+0.9 +0.8 99 -1 -1 1006.5 994.3
23 9.12 ЮЗ 1 6000 м 9/0
[Ac As]
+2.8 +2.1 95 +1 +1 1007.2 995.1
22 9.12 Ю 1 6000 м 9/0
[Ac As]
+1.7 +1.6 99 -0 -0 1006.8 994.6
00 10.12 штиль 0 6000 м 9/4 800 м
[Sc Ac As]
+2.5 +1.6 94 +1 +1 1007.6 995.5
01 10.12 Ю 1 6000 м в посл. час дождь 9/4 800 м
[Sc Ac As]
+2.8 +2.2 96 +1 +1 1007.7 995.6
02 10.12 ЮЗ 1 6000 м слабый дождь 10/6 800 м
[Sc Ac As]
+4.6 +3.3 91 +3 +3 1008.4 996.3
03 10.12 ЮЗ 1 6000 м в посл. час дождь 9/4 800 м
[Sc Ac As]
+4.7 +3.8 94 +3 +3 1008.4 996.3
05 10.12 СЗ 2 6000 м 9/0
[Ac As]
+4.5 +3.0 90 +2 +2 1009.2 997.1
04 10.12 З 1 6000 м 9/0
[Ac As]
+4.4 +3.5 94 +3 +3 1008.7 996.6
06 10.12 СЗ 1 6000 м {дождь} 8/0
[Ac trans Ci sp]
+3.3 +2.3 93 +2 +2 1009.7 997.6 +0.7 0.4
07 10.12 СЗ 2 10 км 8/0
[Ac lent Ci sp]
+4.2 +2.7 90 +1 +1 1010.5 998.4
08 10.12 СЗ 4
{8}
15 км 6/0
[Ac trans Ci sp]
+6.2 +2.5 77 +3 +3 1011.4 999.4
09 10.12 СЗ 5 20 км 4/0
[Ac cast Ci sp]
+7.4 +2.5 71 +4 +4 1012.0 1000.0
11 10.12 СЗ 6
{18}
25 км 6/5 800 м
[Cu med, cong Ci sp]
+8.4 -0.1 55 +5 +5 1012.8 1000.8
10 10.12 СЗ 6 25 км 4/1 800 м
[Cu med, cong Ci sp]
+8.4 +0.6 58 +5 +6 1012.5 1000.5
12 10.12 СЗ 4 20 км в посл. час ливневой дождь 6/5 800 м
[Cu med, cong Ci sp]
+8.1 +1.5 63 +5 +6 1013.1 1001.1
13 10.12 СЗ 4
{11}
20 км 8/3 800 м
[Cu med, cong Cs]
+7.4 +1.5 66 +4 +5 1013.5 1001.5
14 10.12 СЗ 4 20 км 8/3 800 м
[Cu med, cong Ac trans Ci sp]
+8.0 0.0 57 +5 +5 1013.8 1001.8
15 10.12 СЗ 3
{10}
20 км 8/4 800 м
[Cu med, cong Ci sp]
+6.7 +0.8 66 +4 +4 1014.2 1002.2
17 10.12 СЗ 2
{10}
15 км ясно +4.1 +0.3 76 +1 +1 1014.8 1002.6
16 10.12 СЗ 6 20 км 5/5 800 м
[Cu med, cong]
+5.7 +0.9 71 +1 +1 1014.4 1002.3
18 10.12 СЗ 3 15 км ясно +3.9 -0.1 75 0 0 1015.1 1002.9 +9.0
19 10.12 СЗ 3
{9}
15 км 4/0
[Ci sp]
+3.8 -0.2 75 0 0 1015.2 1003.0
20 10.12 СЗ 3
{7}
15 км 4/0
[Ci sp]
+2.7 -0.1 82 -1 -1 1015.6 1003.4
21 10.12 СЗ 1 10 км ясно +1.7 -0.5 85 0 0 1015.9 1003.6
23 10.12 СЗ 2 10 км ясно +0.6 -1.5 86 -3 -3 1015.6 1003.3
22 10.12 СЗ 2 10 км ясно +2.1 -0.8 81 -1 -1 1015.7 1003.4
00 11.12 З 3
{7}
10 км ясно +1.8 -1.3 80 -2 -2 1015.4 1003.1
01 11.12 СЗ 2 10 км ясно +1.0 -2.1 80 -2 -2 1015.8 1003.5
02 11.12 СЗ 1 10 км ясно +0.5 -2.0 83 -1 -1 1015.8 1003.5
03 11.12 З 2 10 км 4/0
[Ci sp]
+0.6 -2.1 82 -3 -3 1015.9 1003.6
05 11.12 СЗ 1 10 км 4/0
[Ci sp]
+0.1 -2.3 84 -2 -2 1016.0 1003.6
04 11.12 З 1 10 км 4/0
[Ci sp]
+0.4 -2.1 83 -2 -2 1015.9 1003.6
06 11.12 ЮЗ 1 10 км 1/0
[Ci sp]
-1.6 -3.0 90 -4 -4 1016.4 1004.0 -1.6
07 11.12 штиль 0 20 км 3/1 800 м
[Sc Ci sp]
-2.8 -3.8 93 -4 -4 1016.6 1004.1
08 11.12 Ю 1 30 км 5/1 800 м
[Sc Ac lent Ci sp]
+0.6 -1.6 85 -1 -1 1016.6 1004.3
09 11.12 З 2 30 км 9/0
[Ac lent Cs]
+2.5 -0.6 80 -1 +1 1016.9 1004.6
11 11.12 ЮЗ 2 25 км слабый дождь 9/9 800 м
[Sc]
+3.8 +0.1 77 +1 +1 1016.3 1004.1
10 11.12 З 2 30 км 9/9 800 м
[Sc]
+4.4 -0.6 70 +2 +2 1016.5 1004.3
12 11.12 З 3 25 км слабый дождь 9/9 800 м
[Sc]
+3.3 +1.2 86 -1 -0 1016.5 1004.3
13 11.12 З 2 25 км в посл. час дождь 9/9 800 м
[Sc]
+3.6 +1.3 85 +1 +1 1016.6 1004.4
14 11.12 З 2 25 км 9/6 800 м
[Sc Ac As]
+3.9 +0.9 81 +1 +1 1016.8 1004.6
15 11.12 З 2 25 км слабый дождь 10/8 800 м
[Sc Ac As]
+3.7 +0.7 81 +1 +1 1017.1 1004.9
17 11.12 З 1 15 км слабый дождь 10/8 800 м
[Sc Ac As]
+2.8 +0.5 85 +1 +1 1017.4 1005.1
16 11.12 З 1 20 км в посл. час дождь 10/8 800 м
[Sc Ac As]
+3.3 +0.5 82 +2 +2 1017.1 1004.9
18 11.12 З 2 15 км слабый дождь 10/8 600 м
[Sc Ac As]
+3.4 +1.0 84 0 0 1017.3 1005.1
19 11.12 З 2 15 км слабый дождь 10/8 800 м
[Sc Ac As]
+3.4 +1.0 84 0 0 1017.6 1005.4
20 11.12 З 3 15 км в посл. час дождь 10/8 800 м
[Sc Ac As]
+3.5 +0.9 83 -0 -0 1017.5 1005.3
21 11.12 З 1 15 км слабый дождь 10/8 800 м
[Sc Ac As]
+3.3 +1.0 85 +2 +2 1017.3 1005.1
23 11.12 З 3
{7}
15 км 8/4 800 м
[Sc Ac As]
+2.8 +0.4 84 -1 -1 1016.8 1004.6
22 11.12 З 2 15 км в посл. час дождь 9/9 800 м
[Sc]
+3.5 +0.6 81 +1 +1 1017.2 1005.0
00 12.12 З 3 15 км {дождь} 9/0
[Ac As]
+2.4 +0.5 87 -2 -2 1016.8 1004.5
01 12.12 З 3 15 км 10/6 800 м
[Sc Ac As]
+2.6 +0.3 85 -2 -2 1016.8 1004.5
02 12.12 СЗ 1 15 км 9/4 800 м
[Sc Ac As]
+2.9 +0.3 83 +1 +1 1017.1 1004.9
03 12.12 З 1 15 км 9/4 800 м
[Sc Ac As]
+2.4 +0.6 88 +1 +1 1017.2 1004.9
05 12.12 СЗ 2 15 км 9/0
[Ac As]
+2.5 +0.4 86 -1 -1 1017.6 1005.3
04 12.12 СЗ 1 15 км 9/6 800 м
[Sc Ac As]
+2.4 +0.6 88 +1 +1 1017.3 1005.0
06 12.12 З 1 10 км 9/5 800 м
[Frnb Ac As]
+1.6 +0.1 90 -0 -0 1018.0 1005.7 +1.5
07 12.12 штиль 0 10 км 9/5 800 м
[Sc Ac As]
+1.8 +0.5 91 +1 +1 1018.5 1006.2
08 12.12 З 2 10 км 6/1 800 м
[Sc Ac As Ci sp]
+2.1 +0.5 89 -1 -1 1018.8 1006.5
09 12.12 СЗ 2 15 км 5/1 800 м
[Cu med, cong Ci sp]
+3.9 +0.8 80 +1 +3 1019.0 1006.8
11 12.12 З 3 20 км 6/5 800 м
[Cu med, cong Ci sp]
+5.3 +0.5 71 +2 +3 1019.0 1006.8
10 12.12 СЗ 3 20 км 6/5 800 м
[Cu med, cong Ci sp]
+4.4 +0.2 74 +1 +2 1019.2 1007.0
12 12.12 СЗ 2 20 км 6/5 800 м
[Cu med, cong Ci sp]
+5.1 +0.3 71 +3 +4 1019.1 1006.9
13 12.12 СЗ 2
{7}
20 км 8/6 800 м
[Cu med, cong Ci sp]
+4.5 +0.3 74 +2 +2 1019.6 1007.4
14 12.12 СЗ 2 20 км 8/6 800 м
[Cu med, cong Ci sp]
+4.1 +0.3 76 +1 +2 1019.9 1007.7
15 12.12 З 3 15 км 8/3 800 м
[Cu med, cong Ac As Ci sp]
+3.9 +0.1 76 0 0 1020.1 1007.9
17 12.12 СЗ 2 15 км 9/5 800 м
[Cu med, cong Ac As]
+2.4 -0.0 84 -1 -1 1020.7 1008.4
16 12.12 СЗ 2 15 км 9/5 800 м
[Cu med, cong Ac As]
+3.2 +0.1 80 0 0 1020.4 1008.1
18 12.12 СЗ 1 15 км 10/4 800 м
[Sc Ac As]
+1.7 -0.4 86 -0 -0 1021.1 1008.8 +5.8
19 12.12 штиль 0 15 км 8/0
[Ac As]
+1.5 -0.6 86 0 0 1021.5 1009.1
20 12.12 З 1 15 км 10/0
[Ac As]
+1.2 -0.4 89 -1 -1 1021.8 1009.4
21 12.12 штиль 0 10 км 10/0
[Ac As]
+1.2 -0.3 90 0 0 1021.9 1009.5
23 12.12 штиль 0 6000 м 3/0
[Ci sp]
-2.6 -3.3 95 -4 -4 1022.5 1009.9
22 12.12 штиль 0 10 км 5/0
[Ac As]
-0.4 -1.5 92 -2 -2 1022.1 1009.6
00 13.12 штиль 0 6000 м 5/0
[Ac As]
-2.8 -3.2 97 -4 -4 1022.7 1010.1
01 13.12 С 1 6000 м 8/0
[Ac As]
-1.6 -1.7 99 -4 -4 1022.4 1009.9
02 13.12 С 1 6000 м 3/0
[Ci sp]
-2.2 -2.5 98 -5 -5 1022.5 1010.0
03 13.12 штиль 0 6000 м ясно -3.9 -4.2 98 -5 -5 1022.4 1009.8
05 13.12 штиль 0 6000 м ясно -5.2 -5.6 97 -6 -6 1022.3 1009.6
04 13.12 штиль 0 6000 м ясно -4.6 -4.9 98 -6 -6 1022.3 1009.7
06 13.12 штиль 0 6000 м ясно -5.6 -6.1 96 -7 -7 1022.4 1009.7 -5.6
07 13.12 штиль 0 6000 м 8/8 180 м
[St]
-6.1 -6.9 94 -7 -7 1022.8 1010.1
08 13.12 штиль 0 300 м туман 10/10 90 м
[St]
-3.5 -3.8 98 -5 -5 1022.9 1010.3
09 13.12 штиль 0 100 м туман ?/? -2.4 -2.5 99 -4 -4 1022.9 1010.3
11 13.12 ЮЗ 1 100 м туман {морось} ?/? -1.9 -2.0 99 -4 -4 1022.4 1009.9
10 13.12 штиль 0 500 м слабая переохл. морось (гололёд) {туман} 10/10 120 м
[St]
-1.5 -1.6 99 -3 -3 1022.7 1010.2
12 13.12 С 1 100 м туман {морось} ?/? -1.2 -1.2 100 -4 -4 1022.0 1009.5
13 13.12 СВ 1 300 м туман ?/? -0.4 -0.4 100 -3 -3 1021.5 1009.1
14 13.12 С 1 200 м туман ?/? -0.9 -0.9 100 -3 -3 1021.9 1009.4
15 13.12 С 1 100 м туман ?/? -1.0 -1.1 99 -3 -3 1021.8 1009.3
17 13.12 С 1 100 м туман ?/? -1.7 -1.8 99 -4 -4 1021.8 1009.3
16 13.12 С 1 100 м туман ?/? -1.3 -1.4 99 -4 -4 1021.7 1009.2
18 13.12 СЗ 1 200 м туман ?/? -2.1 -2.2 99 -5 -5 1022.0 1009.5 -0.3
19 13.12 С 1 200 м туман ?/? -2.7 -2.8 99 -5 -5 1022.3 1009.7
20 13.12 СВ 2 200 м туман ?/? -2.8 -2.8 100 -7 -7 1022.3 1009.7
21 13.12 СВ 1 200 м туман ?/? -3.0 -3.0 100 -6 -6 1022.6 1010.0

 

Местоположение метеостанции Paks (Венгрия): широта 46.58 долгота 18.85 высота над уровнем моря 98 м.

В архиве по умолчанию представлена погода в Paks за последнюю неделю. Архивные данные за месяц целиком и за предыдущие месяцы, начиная с января 2011 года, Вы можете получить, выбрав интересующий диапазон дат из раскрывающегося списка и нажав кнопку "Ввод!".


*Определитесь, кто Вы:
робот инопланетянин человек

Внимание! Время в таблицах - всемирное. Для получения местного времени необходимо прибавить поправку, которая в Paks равна 1 ч.

Смотрите также архив погоды в соседних городах и на ближайших метеорологических станциях:

Погода в Baja (Венгрия) (46 км)
Погода в Agard (Венгрия) (69 км)
Погода в Siofok (Венгрия) (72 км)
Погода в Kecskemet (Венгрия) (78 км)
Погода в Pecs (Венгрия) (80 км)
Погода в Kaposvar (Венгрия) (81 км)
Погода в Palic (Сербия) (89 км)
Погода в Sombor (Сербия) (93 км)
Погода в Veszprem (Венгрия) (95 км)
Погода в Budapest (Венгрия) (98 км)

Пояснения к столбцам:

Ветер - указаны скорость ветра в м/с - средняя за 10 мин, порывы в срок и между сроками (в фигурных скобках) и направление, откуда дует ветер: С - северный, СВ - северо-восточный, В - восточный, ЮВ - юго-восточный, Ю - южный, ЮЗ - юго-западный, З - западный, СЗ - северо-западный.
Видимость - горизонтальная дальность видимости в метрах или километрах. При видимости от 1 до 10 км при отсутствии осадков обычно наблюдается дымка, при ухудшении видимости до 1 км и менее - туман. В сухую погоду видимость может ухудшаться дымом, пылью или мглою.
Явления - указаны атмосферные явления, наблюдавшиеся в срок или в последний час перед сроком; фигурными скобками обозначены явления, наблюдавшиеся между сроками (за 1-3 часа до срока); квадратными скобками обозначены град или гололедные отложения с указанием их диаметра в мм.
Облачность - указаны через наклонную черту общая и нижняя облачность в баллах и высота нижней границы облаков в метрах; квадратными скобками обозначены формы облаков: Ci - перистые, Cs - перисто-слоистые, Cc - перисто-кучевые, Ac - высококучевые, As - высокослоистые, Sc - слоисто-кучевые, Ns - слоисто-дождевые, Cu - кучевые, Cb - кучево-дождевые. Подробнее классификацию облаков см. в Атласе облаков (PDF).
T - Температура воздуха - температура, измеренная на высоте 2 м над землей.
Td - Температура точки росы - температура, при понижении до которой содержащийся в воздухе водяной пар достигнет насыщения.
f - Относительная влажность воздуха - влажноcть воздуха, измеренная на высоте 2 м над землей.
Te - Эффективная температура - температура, которую ощущает одетый по сезону человек в тени. Характеристика душности погоды. При расчете учитывается влияние влажности воздуха и скорости ветра на теплоощущения человека.
Tes - Эффективная температура на солнце - температура, которую ощущает человек, с поправкой на солнечный нагрев. Характеристика знойности погоды. Зависит от высоты солнца над горизонтом, облачности и скорости ветра. Ночью, в пасмурную погоду, а также при ветре 12 м/с и более поправка равна нулю.
P - Атмосферное давление - приведенное к уровню моря атмосферное давление.
Po - Атмосферное давление - измеренное на уровне метеостанции атмосферное давление.
Tmin - Минимальная температура - минимум температуры воздуха на высоте 2 м над землей.
Tmax - Максимальная температура - максимум температуры воздуха на высоте 2 м над землей.
R - Количество осадков - Количество выпавших осадков за период времени, мм. При наведении курсора мыши на число - период времени, за который выпало указанное количество осадков.
R24 - Количество осадков - Количество выпавших осадков за 24 часа, мм.
S - Снежный покров - Высота снежного покрова, см. При наведении курсора мыши на число - состояние снежного покрова и степень покрытия местности в баллах.